Date String (YYYY-MM-DD hh:mm:ss) UTC,Instrument flags,Ambient pressure (hPa),Sample flow (lpm),Bypass flow (lpm),Sample temperature (°C),Ambient temperature (°C),ASC tube jacket temperature (°C),LED temperature (°C),Box temperature (°C),Sample RH (%),Span deviation,Mass concentration (μg/m³),Mass concentration (μg/m³),Mass concentration (μg/m³)
DateTimeUTC,F1_M11,P_M11,Q1_M11,Q2_M11,T1_M11,T2_M11,T3_M11,T4_M11,T5_M11,U1_M11,ZSPAN_M11,X2_M11,X0_M11,X1_M11
2021-11-13 10:00:00,,0827.9,5.00,0.00,25.3,24.5,00.0,34.5,27.1,16.4,0000.0,0000.39,0002.76,0000.24
2021-11-13 10:01:00,,0827.9,5.00,0.00,25.3,24.6,00.0,34.5,27.0,16.4,0000.0,0000.37,0002.99,0000.24
2021-11-13 10:02:00,,0827.9,4.99,0.00,25.3,24.6,00.0,34.5,27.1,16.4,0000.0,0000.37,0002.60,0000.23
2021-11-13 10:03:00,,0827.9,5.01,0.00,25.3,24.6,00.0,34.4,27.1,16.4,0000.0,0000.34,0002.18,0000.23
2021-11-13 10:04:00,,0827.8,5.01,0.00,25.3,24.6,00.0,34.4,27.1,16.3,0000.0,0000.33,0002.15,0000.23
2021-11-13 10:05:00,,0827.8,4.99,0.00,25.3,24.5,00.0,34.4,27.1,16.3,0000.0,0000.29,0001.97,0000.22
2021-11-13 10:06:00,,0827.7,5.00,0.00,25.3,24.5,00.0,34.4,27.1,16.4,0000.0,0000.29,0001.96,0000.22
2021-11-13 10:07:00,,0827.6,4.99,0.00,25.3,24.5,00.0,34.4,27.1,16.3,0000.0,0000.31,0002.10,0000.23
2021-11-13 10:08:00,,0827.5,4.99,0.00,25.2,24.5,00.0,34.4,27.0,16.3,0000.0,0000.30,0002.07,0000.23
2021-11-13 10:09:00,,0827.5,5.01,0.00,25.3,24.5,00.0,34.4,27.0,16.3,0000.0,0000.33,0002.13,0000.22
2021-11-13 10:10:00,,0827.6,4.99,0.00,25.2,24.5,00.0,34.4,27.1,16.3,0000.0,0000.33,0002.13,0000.22
2021-11-13 10:11:00,,0827.7,5.00,0.00,25.2,24.5,00.0,34.4,27.0,16.3,0000.0,0000.32,0002.12,0000.22
2021-11-13 10:12:00,,0827.6,5.01,0.00,25.3,24.5,00.0,34.4,27.1,16.3,0000.0,0000.33,0001.35,0000.22
2021-11-13 10:13:00,,0827.6,4.99,0.00,25.3,24.6,00.0,34.4,27.1,16.3,0000.0,0000.34,0000.72,0000.23
2021-11-13 10:14:00,,0827.6,5.00,0.00,25.3,24.6,00.0,34.4,27.1,16.3,0000.0,0000.33,0000.71,0000.23
2021-11-13 10:15:00,,0827.6,5.00,0.00,25.3,24.6,00.0,34.4,27.1,16.3,0000.0,0000.34,0000.74,0000.22
2021-11-13 10:16:00,,0827.6,5.00,0.00,25.3,24.6,00.0,34.4,27.1,16.4,0000.0,0000.34,0000.74,0000.22
2021-11-13 10:17:00,,0827.6,4.99,0.00,25.3,24.6,00.0,34.3,27.1,16.4,0000.0,0000.36,0000.83,0000.22
2021-11-13 10:18:00,,0827.6,5.01,0.00,25.3,24.6,00.0,34.3,27.1,16.4,0000.0,0000.34,0000.70,0000.21
2021-11-13 10:19:00,,0827.6,4.99,0.00,25.3,24.6,00.0,34.3,27.1,16.4,0000.0,0000.33,0000.68,0000.21
2021-11-13 10:20:00,,0827.6,5.01,0.00,25.3,24.6,00.0,34.3,27.1,16.4,0000.0,0000.32,0000.65,0000.22
2021-11-13 10:21:00,,0827.7,5.00,0.00,25.3,24.6,00.0,34.3,27.1,16.5,0000.0,0000.33,0001.15,0000.22
2021-11-13 10:22:00,,0827.7,4.99,0.00,25.3,24.6,00.0,34.3,27.1,16.5,0000.0,0000.34,0001.26,0000.22
2021-11-13 10:23:00,,0827.7,5.02,0.00,25.3,24.6,00.0,34.3,27.1,16.5,0000.0,0000.33,0001.25,0000.22
2021-11-13 10:24:00,,0827.8,4.99,0.00,25.3,24.6,00.0,34.3,27.1,16.6,0000.0,0000.34,0001.24,0000.21
2021-11-13 10:25:00,,0828.0,5.00,0.00,25.3,24.6,00.0,34.3,27.1,16.6,0000.0,0000.36,0001.32,0000.21
2021-11-13 10:26:00,,0827.9,4.98,0.00,25.3,24.6,00.0,34.3,27.1,16.6,0000.0,0000.35,0001.36,0000.21
2021-11-13 10:27:00,,0827.9,5.00,0.00,25.3,24.6,00.0,34.3,27.1,16.6,0000.0,0000.36,0001.72,0000.21
2021-11-13 10:28:00,,0827.8,5.00,0.00,25.3,24.6,00.0,34.3,27.1,16.7,0000.0,0000.35,0001.61,0000.21
2021-11-13 10:29:00,,0827.9,5.01,0.00,25.3,24.6,00.0,34.3,27.0,16.7,0000.0,0000.35,0001.57,0000.21
2021-11-13 10:30:00,,0827.9,5.00,0.00,25.2,24.5,00.0,34.3,27.0,16.7,0000.0,0000.35,0001.58,0000.21
2021-11-13 10:31:00,,0827.9,4.99,0.00,25.2,24.5,00.0,34.3,27.0,16.7,0000.0,0000.33,0001.55,0000.21
2021-11-13 10:32:00,,0827.9,5.00,0.00,25.2,24.5,00.0,34.3,27.0,16.7,0000.0,0000.30,0001.13,0000.21
2021-11-13 10:33:00,,0827.9,5.01,0.00,25.2,24.5,00.0,34.3,27.0,16.7,0000.0,0000.32,0000.94,0000.21
2021-11-13 10:34:00,,0827.9,5.01,0.00,25.2,24.5,00.0,34.3,27.0,16.5,0000.0,0000.33,0000.99,0000.21
2021-11-13 10:35:00,,0827.9,5.00,0.00,25.2,24.5,00.0,34.3,27.0,16.5,0000.0,0000.34,0001.13,0000.21
2021-11-13 10:36:00,,0827.8,5.00,0.00,25.2,24.5,00.0,34.3,27.0,16.6,0000.0,0000.33,0001.05,0000.22
2021-11-13 10:37:00,,0827.7,5.00,0.00,25.2,24.5,00.0,34.3,27.0,16.5,0000.0,0000.33,0001.09,0000.22
2021-11-13 10:38:00,,0827.8,4.99,0.00,25.2,24.5,00.0,34.3,27.0,16.4,0000.0,0000.33,0000.73,0000.22
2021-11-13 10:39:00,,0827.9,5.01,0.00,25.2,24.5,00.0,34.2,27.0,16.3,0000.0,0000.33,0000.73,0000.22
2021-11-13 10:40:00,,0827.9,5.01,0.00,25.2,24.5,00.0,34.2,27.0,16.2,0000.0,0000.32,0000.71,0000.22
2021-11-13 10:41:00,,0827.9,4.99,0.00,25.2,24.5,00.0,34.2,27.0,16.3,0000.0,0000.32,0000.73,0000.22
2021-11-13 10:42:00,,0827.9,4.99,0.00,25.2,24.5,00.0,34.2,27.0,16.2,0000.0,0000.34,0000.85,0000.22
2021-11-13 10:43:00,,0827.8,5.00,0.00,25.1,24.4,00.0,34.2,27.0,16.3,0000.0,0000.33,0000.85,0000.22
2021-11-13 10:44:00,,0827.8,5.01,0.00,25.1,24.4,00.0,34.2,26.9,16.3,0000.0,0000.33,0000.83,0000.22
2021-11-13 10:45:00,,0827.7,5.00,0.00,25.1,24.5,00.0,34.2,26.9,16.4,0000.0,0000.32,0000.87,0000.22
2021-11-13 10:46:00,,0827.7,4.99,0.00,25.1,24.5,00.0,34.2,27.0,16.3,0000.0,0000.30,0001.62,0000.22
2021-11-13 10:47:00,,0827.7,5.00,0.00,25.2,24.5,00.0,34.2,27.0,16.3,0000.0,0000.28,0002.32,0000.21
2021-11-13 10:48:00,,0827.8,5.00,0.00,25.2,24.5,00.0,34.2,27.0,16.3,0000.0,0000.27,0002.26,0000.21
2021-11-13 10:49:00,,0827.7,5.00,0.00,25.2,24.6,00.0,34.2,27.0,16.2,0000.0,0000.27,0002.20,0000.20
2021-11-13 10:50:00,,0827.7,5.01,0.00,25.2,24.6,00.0,34.2,27.0,16.2,0000.0,0000.27,0002.21,0000.20
2021-11-13 10:51:00,,0827.8,4.99,0.00,25.2,24.6,00.0,34.2,27.0,16.1,0000.0,0000.27,0002.21,0000.20
2021-11-13 10:52:00,,0827.9,5.00,0.00,25.3,24.6,00.0,34.2,27.1,16.1,0000.0,0000.27,0002.19,0000.20
2021-11-13 10:53:00,,0827.9,5.01,0.00,25.3,24.7,00.0,34.2,27.1,16.1,0000.0,0000.26,0002.08,0000.21
2021-11-13 10:54:00,,0827.7,5.01,0.00,25.3,24.7,00.0,34.3,27.1,16.1,0000.0,0000.27,0002.09,0000.21
2021-11-13 10:55:00,,0827.7,4.99,0.00,25.3,24.7,00.0,34.3,27.2,16.1,0000.0,0000.26,0002.07,0000.20
2021-11-13 10:56:00,,0827.7,5.01,0.00,25.3,24.7,00.0,34.3,27.2,16.0,0000.0,0000.25,0002.00,0000.20
2021-11-13 10:57:00,,0827.7,5.00,0.00,25.3,24.7,00.0,34.3,27.2,16.0,0000.0,0000.25,0000.91,0000.20
2021-11-13 10:58:00,,0827.7,5.00,0.00,25.4,24.8,00.0,34.3,27.2,15.9,0000.0,0000.26,0000.41,0000.21
2021-11-13 10:59:00,,0827.8,5.00,0.00,25.4,24.8,00.0,34.3,27.2,16.0,0000.0,0000.27,0000.43,0000.21
